Location: Aldenham
(51.6667°N, 0.3500°W)
Time: 04:06:21
(UTC+00:00)

A-11 Canister half - Pass Details

Date: 19 February 2026
Orbit: 1512 x 1687 km, 47.2° (Epoch: 7 March)

Event Time Altitude Azimuth Distance (km) Brightness Sun altitude
Rises 20:02:24 0° 213° (SSW) 4,931 11.9 -25.1°
Reaches altitude 10° 20:05:53 10° 206° (SSW) 3,944 11.2 -25.7°
Enters shadow 20:14:49 38° 144° (SE) 2,379 9.5 -27.0°
Maximum altitude 20:14:51 38° 143° (SE) 2,379 - -27.0°
Drops below altitude 10° 20:23:40 10° 81° (E) 3,888 - -28.3°
Sets 20:27:03 0° 74° (ENE) 4,854 - -28.8°
